When you browse on this site, cookies collect data to enhance your experience and personalize the content and advertising you see.
Visit our Privacy Policy to learn more. By continuing to use the site, you agree to this use of cookies and data.
  • En España
  • Lista de países
  • Para 7 días
  • Temperatura del agua
  • El tiempo en el mapa
  • Informadores
  • user-avatar
    Iniciar sesión

    Tiempo cada hora Andon

    Hoy, 28 Mayo, Jueves

    Tiempo Temperatura Precipitaciones Viento Presión Humedad
    00:00 +12°C° 0 mm 0 mps 744 mmHg 76%
    01:00 +12°C° 0 mm 0 mps 744 mmHg 78%
    02:00 +11°C° 0 mm 0 mps 743 mmHg 81%
    03:00 +11°C° 0 mm 0 mps 743 mmHg 82%
    04:00 +11°C° 0 mm 0 mps 744 mmHg 82%
    05:00 +11°C° 0 mm 0 mps 744 mmHg 82%
    06:00 +11°C° 0 mm 0 mps 744 mmHg 82%
    07:00 +14°C° 0 mm 0 mps 744 mmHg 70%
    08:00 +19°C° 0 mm 1 mps 744 mmHg 59%
    09:00 +22°C° 0 mm 1 mps 744 mmHg 47%
    10:00 +24°C° 0 mm 2 mps 744 mmHg 42%
    11:00 +25°C° 0 mm 2 mps 744 mmHg 36%
    12:00 +26°C° 0 mm 2 mps 744 mmHg 30%
    13:00 +27°C° 0 mm 2 mps 744 mmHg 30%
    14:00 +27°C° 0 mm 2 mps 744 mmHg 31%
    15:00 +27°C° 0 mm 2 mps 744 mmHg 30%
    16:00 +26°C° 0 mm 2 mps 744 mmHg 35%
    17:00 +26°C° 0 mm 2 mps 744 mmHg 40%
    18:00 +25°C° 0 mm 1 mps 744 mmHg 45%
    19:00 +22°C° 0 mm 1 mps 744 mmHg 53%
    20:00 +19°C° 0 mm 1 mps 745 mmHg 62%
    21:00 +16°C° 0 mm 1 mps 745 mmHg 70%
    22:00 +15°C° 0 mm 1 mps 745 mmHg 72%
    23:00 +14°C° 0 mm 1 mps 746 mmHg 73%

    Mañana, 29 Mayo, Viernes

    Tiempo Temperatura Precipitaciones Viento Presión Humedad
    00:00 +13°C° 0 mm 0 mps 746 mmHg 75%
    01:00 +12°C° 0 mm 0 mps 746 mmHg 76%
    02:00 +12°C° 0 mm 0 mps 746 mmHg 78%
    03:00 +11°C° 0 mm 0 mps 746 mmHg 80%
    04:00 +12°C° 0 mm 0 mps 747 mmHg 80%
    05:00 +12°C° 0 mm 0 mps 747 mmHg 80%
    06:00 +12°C° 0 mm 0 mps 747 mmHg 81%
    07:00 +15°C° 0 mm 0 mps 748 mmHg 71%
    08:00 +20°C° 0 mm 1 mps 748 mmHg 61%
    09:00 +23°C° 0 mm 1 mps 748 mmHg 51%
    10:00 +26°C° 0 mm 1 mps 749 mmHg 45%
    11:00 +28°C° 0 mm 1 mps 749 mmHg 38%
    12:00 +28°C° 0 mm 0 mps 749 mmHg 32%
    13:00 +30°C° 0 mm 1 mps 749 mmHg 32%
    14:00 +29°C° 0 mm 1 mps 749 mmHg 32%
    15:00 +29°C° 0 mm 2 mps 749 mmHg 32%
    16:00 +27°C° 0 mm 2 mps 749 mmHg 36%
    17:00 +26°C° 0 mm 3 mps 749 mmHg 41%
    18:00 +23°C° 0 mm 4 mps 749 mmHg 45%
    19:00 +21°C° 0 mm 3 mps 749 mmHg 51%
    20:00 +18°C° 0 mm 2 mps 750 mmHg 57%
    21:00 +16°C° 0 mm 1 mps 750 mmHg 63%
    22:00 +15°C° 0 mm 1 mps 750 mmHg 64%
    23:00 +15°C° 0 mm 1 mps 751 mmHg 64%

    Pasado mañana, 30 Mayo, Sábado

    Tiempo Temperatura Precipitaciones Viento Presión Humedad
    00:00 +15°C° 0 mm 1 mps 751 mmHg 64%
    01:00 +14°C° 0 mm 1 mps 751 mmHg 65%
    02:00 +13°C° 0 mm 0 mps 751 mmHg 65%
    03:00 +13°C° 0 mm 0 mps 751 mmHg 65%
    04:00 +13°C° 0 mm 0 mps 751 mmHg 66%
    05:00 +13°C° 0 mm 0 mps 751 mmHg 67%
    06:00 +13°C° 0 mm 0 mps 751 mmHg 67%
    07:00 +17°C° 0 mm 0 mps 751 mmHg 60%
    08:00 +20°C° 0 mm 0 mps 752 mmHg 52%
    09:00 +23°C° 0 mm 0 mps 752 mmHg 44%
    10:00 +26°C° 0 mm 0 mps 751 mmHg 40%
    11:00 +28°C° 0 mm 0 mps 751 mmHg 35%
    12:00 +30°C° 0 mm 0 mps 751 mmHg 31%
    13:00 +31°C° 0 mm 1 mps 751 mmHg 31%
    14:00 +30°C° 0 mm 2 mps 750 mmHg 31%
    15:00 +30°C° 0 mm 3 mps 750 mmHg 31%
    16:00 +28°C° 0 mm 3 mps 749 mmHg 38%
    17:00 +27°C° 0 mm 3 mps 749 mmHg 43%
    18:00 +25°C° 0 mm 3 mps 749 mmHg 47%
    19:00 +23°C° 0 mm 2 mps 749 mmHg 54%
    20:00 +19°C° 0 mm 2 mps 749 mmHg 61%
    21:00 +18°C° 0 mm 1 mps 749 mmHg 67%
    22:00 +16°C° 0 mm 1 mps 749 mmHg 69%
    23:00 +15°C° 0 mm 1 mps 749 mmHg 71%

    31 Mayo, Domingo

    Tiempo Temperatura Precipitaciones Viento Presión Humedad
    00:00 +14°C° 0 mm 0 mps 749 mmHg 73%
    01:00 +14°C° 0 mm 0 mps 749 mmHg 72%
    02:00 +14°C° 0 mm 0 mps 749 mmHg 71%
    03:00 +14°C° 0 mm 0 mps 749 mmHg 70%
    04:00 +14°C° 0 mm 0 mps 749 mmHg 72%
    05:00 +14°C° 0 mm 0 mps 749 mmHg 73%
    06:00 +14°C° 0 mm 0 mps 749 mmHg 74%
    07:00 +17°C° 0 mm 0 mps 749 mmHg 66%
    08:00 +22°C° 0 mm 1 mps 749 mmHg 58%
    09:00 +25°C° 0 mm 1 mps 749 mmHg 50%
    10:00 +26°C° 0 mm 1 mps 749 mmHg 45%
    11:00 +28°C° 0 mm 1 mps 749 mmHg 40%
    12:00 +29°C° 0 mm 2 mps 748 mmHg 35%
    13:00 +29°C° 0 mm 2 mps 748 mmHg 39%
    14:00 +28°C° 0 mm 3 mps 747 mmHg 43%
    15:00 +28°C° 0 mm 3 mps 747 mmHg 46%
    16:00 +27°C° 0 mm 3 mps 746 mmHg 51%
    17:00 +26°C° 0 mm 3 mps 746 mmHg 56%
    18:00 +25°C° 0 mm 3 mps 746 mmHg 61%
    19:00 +24°C° 0 mm 2 mps 746 mmHg 67%
    20:00 +21°C° 0 mm 2 mps 746 mmHg 74%
    21:00 +21°C° 0 mm 1 mps 746 mmHg 80%
    22:00 +20°C° 0 mm 1 mps 746 mmHg 83%
    23:00 +20°C° 0 mm 1 mps 746 mmHg 85%

    1 Junio, Lunes

    Tiempo Temperatura Precipitaciones Viento Presión Humedad
    00:00 +19°C° 0 mm 1 mps 746 mmHg 88%
    01:00 +19°C° 0 mm 1 mps 746 mmHg 87%
    02:00 +17°C° 0 mm 0 mps 745 mmHg 87%
    03:00 +17°C° 0 mm 0 mps 745 mmHg 87%
    04:00 +18°C° 0 mm 0 mps 745 mmHg 88%
    05:00 +18°C° 0 mm 0 mps 744 mmHg 88%
    06:00 +18°C° 0 mm 0 mps 744 mmHg 88%
    07:00 +21°C° 0 mm 1 mps 744 mmHg 84%
    08:00 +22°C° 0 mm 1 mps 744 mmHg 80%
    09:00 +23°C° 0 mm 2 mps 744 mmHg 75%
    10:00 +24°C° 0.1 mm 2 mps 744 mmHg 71%
    11:00 +25°C° 0.1 mm 3 mps 743 mmHg 67%
    12:00 +26°C° 0.1 mm 4 mps 743 mmHg 64%
    13:00 +27°C° 0.2 mm 4 mps 743 mmHg 58%
    14:00 +28°C° 0.2 mm 5 mps 742 mmHg 53%
    15:00 +29°C° 0.2 mm 5 mps 742 mmHg 48%
    16:00 +28°C° 0 mm 5 mps 742 mmHg 46%
    17:00 +27°C° 0 mm 5 mps 741 mmHg 44%
    18:00 +27°C° 0 mm 4 mps 741 mmHg 41%
    19:00 +23°C° 0 mm 4 mps 742 mmHg 50%
    20:00 +21°C° 0 mm 3 mps 742 mmHg 58%
    21:00 +18°C° 0 mm 2 mps 742 mmHg 67%
    22:00 +17°C° 0 mm 2 mps 743 mmHg 75%
    23:00 +16°C° 0 mm 2 mps 743 mmHg 83%

    2 Junio, Martes

    Tiempo Temperatura Precipitaciones Viento Presión Humedad
    00:00 +16°C° 0 mm 2 mps 743 mmHg 91%
    01:00 +15°C° 0 mm 2 mps 743 mmHg 92%
    02:00 +14°C° 0 mm 1 mps 743 mmHg 93%
    03:00 +14°C° 0 mm 1 mps 742 mmHg 94%
    04:00 +14°C° 0 mm 1 mps 743 mmHg 93%
    05:00 +13°C° 0 mm 0 mps 743 mmHg 92%
    06:00 +13°C° 0 mm 0 mps 743 mmHg 91%
    07:00 +16°C° 0 mm 0 mps 743 mmHg 75%
    08:00 +21°C° 0 mm 1 mps 743 mmHg 60%
    09:00 +25°C° 0 mm 1 mps 743 mmHg 45%
    10:00 +27°C° 0 mm 2 mps 743 mmHg 39%
    11:00 +28°C° 0 mm 4 mps 742 mmHg 34%
    12:00 +30°C° 0 mm 5 mps 742 mmHg 28%
    13:00 +32°C° 0.2 mm 6 mps 742 mmHg 33%
    14:00 +32°C° 0.2 mm 7 mps 741 mmHg 38%
    15:00 +32°C° 0.2 mm 8 mps 740 mmHg 43%
    16:00 +31°C° 0.1 mm 8 mps 740 mmHg 49%
    17:00 +29°C° 0.1 mm 7 mps 740 mmHg 54%
    18:00 +27°C° 0.1 mm 7 mps 740 mmHg 59%
    19:00 +26°C° 0 mm 6 mps 740 mmHg 66%
    20:00 +23°C° 0 mm 5 mps 740 mmHg 73%
    21:00 +21°C° 0 mm 5 mps 741 mmHg 80%
    22:00 +20°C° 0 mm 4 mps 741 mmHg 84%
    23:00 +19°C° 0 mm 3 mps 741 mmHg 88%
    Mostrar más